Wind_Speed
30 31 31 31 31 31 32 32 32 33 34 35 34 33 33 34 34 35 35 36 36 37 37 37 36 36 36 37 38 37 38 38 38 38 38 37 37 37 38 39 38 37 36 36
31 31 31 31 31 31 32 33 33 33 34 35 35 34 33 34 34 34 35 36 36 36 37 38 38 37 37 38 39 38 37 37 38 39 39 39 38 38 38 38 38 38 37 37
31 31 31 32 32 32 32 33 33 34 34 36 36 35 33 33 34 34 35 35 36 37 37 38 38 38 38 38 39 39 38 38 38 39 39 39 40 40 39 39 38 38 39 38
31 31 31 32 32 33 33 33 34 34 36 36 37 37 33 33 33 34 34 35 35 36 37 37 37 38 37 37 39 40 40 40 41 41 41 42 41 41 40 40 39 39 40 40
30 30 31 31 32 33 33 33 34 35 35 36 36 37 35 34 34 33 34 35 35 36 36 37 37 37 37 37 38 38 39 40 41 42 42 43 43 42 42 42 42 41 41 41
29 30 31 31 31 32 33 34 34 35 36 36 35 37 36 34 33 33 33 34 34 35 36 36 36 37 37 38 38 38 39 40 42 42 43 43 44 44 43 44 44 44 43 43
29 30 30 31 32 33 33 34 34 36 37 37 36 37 36 34 34 33 34 34 34 35 35 36 36 36 37 37 38 38 39 40 41 42 43 43 44 44 44 44 45 45 45 45
31 30 31 31 32 33 34 34 34 36 37 37 36 37 34 34 35 35 34 35 35 35 36 36 37 37 37 38 38 39 39 39 40 41 42 43 44 44 44 44 44 45 45 46
32 32 32 33 33 34 35 35 35 37 38 38 38 37 34 34 34 34 34 35 35 35 36 37 38 38 38 38 39 39 40 40 40 41 42 42 43 44 45 45 45 44 45 47
34 34 33 34 35 36 36 36 36 37 38 39 39 37 35 34 34 35 35 35 36 37 37 38 38 39 39 39 39 39 40 41 42 42 42 43 43 44 45 46 46 46 46 46
35 36 35 36 36 36 36 36 37 38 39 40 40 37 34 34 35 36 36 36 36 37 38 39 39 40 40 40 40 40 40 41 42 43 44 44 44 45 46 46 47 47 47 47
36 37 37 37 36 35 36 36 37 38 39 40 42 39 35 35 36 37 37 37 37 38 38 39 40 41 41 41 42 42 42 42 43 44 44 45 46 46 47 47 47 48 48 48
37 38 38 38 38 37 36 35 36 38 40 42 42 40 38 38 37 38 39 39 39 39 39 39 40 41 42 43 43 43 44 44 44 45 46 46 47 48 48 48 48 48 48 48
38 39 38 38 37 38 37 37 38 39 41 42 41 40 38 38 38 38 39 40 40 40 40 41 41 42 42 43 44 45 45 46 46 46 47 47 48 48 48 48 48 47 47 47
37 38 39 38 37 38 38 38 38 40 41 42 40 39 37 38 39 40 40 41 41 41 41 41 42 43 44 44 45 45 46 46 46 46 47 47 48 48 48 47 47 47 48 48
36 37 38 38 38 39 39 38 39 39 40 40 40 40 38 39 40 40 40 41 42 42 42 42 43 43 44 44 44 45 45 46 46 46 46 47 47 48 47 47 47 48 48 48
36 37 38 38 38 40 41 39 39 40 40 41 42 40 40 41 41 41 42 42 42 42 43 43 44 44 44 44 44 45 45 46 47 47 46 46 47 48 48 48 48 48 48 48
37 37 38 39 40 42 40 39 40 41 41 42 43 43 43 43 43 43 43 43 43 43 43 43 44 44 44 45 45 45 46 46 46 46 46 46 46 47 48 48 48 48 49 49
38 38 39 40 42 43 40 39 40 42 42 42 43 44 44 44 44 44 44 44 44 44 43 43 43 43 44 44 45 45 46 46 46 46 46 46 47 48 48 49 49 49 49 49
37 38 40 41 42 43 41 40 41 42 43 42 43 44 44 45 45 44 44 44 44 44 44 44 44 44 44 45 46 46 46 46 46 47 48 48 48 48 48 49 49 49 50 50
37 39 40 41 42 42 41 41 42 42 42 42 42 43 44 45 45 44 44 44 44 44 45 45 45 46 46 46 47 47 46 46 46 47 48 49 48 48 48 48 49 49 50 50
38 39 40 41 43 42 41 42 42 42 42 41 41 41 42 43 43 43 43 43 43 44 44 44 45 45 45 46 46 46 46 46 47 47 48 48 49 49 49 50 50 50 50 50
39 40 41 41 42 41 41 42 42 42 42 41 41 40 40 41 41 41 41 41 42 42 43 43 43 43 44 44 45 45 45 45 46 46 47 48 49 49 50 50 50 51 51 50
39 39 40 40 41 40 40 41 41 42 42 41 41 40 40 40 40 40 39 39 40 40 41 42 43 43 43 44 44 44 45 45 45 46 47 48 48 49 49 49 50 50 50 50
40 41 41 41 40 41 40 41 41 41 41 42 42 41 41 40 40 40 39 39 40 40 40 41 41 42 42 42 43 43 44 44 44 44 45 46 47 47 48 48 48 48 48 49
40 42 43 42 41 42 41 40 41 41 41 41 41 41 41 41 41 40 40 39 40 40 41 41 42 42 41 42 42 43 43 43 43 43 44 44 45 45 46 46 47 48 48 48
Wind_Direction
262 261 261 261 261 263 263 262 261 260 260 261 261 260 259 259 258 257 256 255 254 253 253 254 254 254 254 254 253 253 253 252 252 252 252 252 253 254 254 255 255 255 256 258
263 261 262 262 262 263 264 263 262 261 261 263 262 261 261 260 259 257 256 256 256 255 254 255 255 255 254 254 254 253 253 253 253 252 252 252 253 254 254 254 253 255 256 257
264 262 262 263 263 262 263 265 265 264 263 263 264 262 261 259 259 259 258 258 257 256 256 256 256 256 256 255 255 253 254 254 253 253 253 254 253 254 254 254 255 255 256 257
265 262 262 263 262 262 263 265 265 266 265 264 264 263 258 259 259 259 259 259 258 257 257 257 256 256 256 255 255 255 255 255 255 255 255 255 255 254 253 253 254 255 256 256
265 262 261 262 263 263 264 265 265 265 265 265 264 265 261 260 260 260 259 259 258 257 256 256 256 256 255 255 255 254 255 255 254 254 255 255 256 255 254 254 254 256 256 256
265 263 263 264 264 265 265 265 265 265 265 264 264 265 263 261 261 260 259 259 258 257 257 256 256 256 256 256 255 255 255 255 256 255 254 254 255 255 256 256 256 257 258 258
265 264 264 264 264 263 264 265 264 264 264 264 264 264 264 263 262 262 261 260 259 257 257 257 257 257 256 256 257 256 255 256 256 255 254 254 255 255 256 257 258 258 258 257
266 264 264 264 263 264 263 264 265 266 266 265 264 265 265 264 264 264 264 263 261 259 257 257 257 257 257 257 258 258 257 256 257 256 256 256 256 256 257 257 258 259 258 258
269 267 265 263 263 264 264 264 266 267 267 267 265 266 265 265 265 265 265 263 262 261 260 259 258 258 258 258 258 259 258 257 257 257 257 258 258 258 258 258 259 260 260 259
271 269 266 265 264 263 264 265 266 266 267 267 268 268 268 266 265 265 265 264 263 262 261 261 260 260 259 259 259 259 260 259 258 258 258 258 259 259 259 259 260 260 261 260
270 269 268 267 266 265 264 264 264 265 265 268 270 270 270 270 268 267 267 266 265 265 264 263 262 261 260 260 259 259 259 259 259 259 259 259 259 260 260 260 260 260 261 261
269 269 268 267 266 265 265 264 264 265 266 267 268 269 269 271 270 268 267 267 267 267 266 265 263 262 261 260 260 260 260 260 260 260 260 260 260 260 260 260 260 260 261 261
270 270 269 266 264 264 264 263 264 265 266 267 269 271 271 271 270 269 268 267 267 267 267 265 264 262 261 261 261 261 261 261 262 261 261 262 261 261 261 261 260 260 260 261
268 268 268 268 268 267 265 264 264 265 266 267 268 270 270 270 270 269 269 269 269 268 267 266 266 264 263 262 261 261 262 262 263 263 262 262 263 262 262 261 261 260 260 261
268 268 267 267 267 267 266 265 265 266 267 269 270 270 270 269 269 269 269 269 270 269 269 268 267 266 264 263 262 262 262 263 263 263 263 262 262 262 262 261 261 261 261 263
268 268 268 267 267 267 267 266 265 266 267 268 269 269 270 270 270 270 270 270 270 270 269 269 268 267 265 264 263 263 262 263 263 264 263 263 263 262 262 261 262 262 263 264
267 269 270 270 269 267 267 268 268 268 268 268 269 270 271 271 271 271 272 271 271 271 270 269 267 266 265 264 264 264 264 264 265 265 264 263 263 263 262 262 263 263 264 264
268 269 270 271 270 269 271 270 270 270 270 270 270 271 272 273 272 271 271 272 272 272 272 271 269 267 266 265 265 265 265 265 265 265 264 263 263 264 264 264 264 264 265 266
269 269 270 271 271 272 272 273 273 272 272 272 273 273 272 272 272 272 272 273 273 272 272 271 270 268 266 265 265 265 265 264 264 263 264 264 264 265 264 264 264 264 265 266
271 271 271 272 273 273 274 274 274 274 273 274 274 274 273 273 273 273 272 272 272 272 271 271 270 269 268 267 266 266 265 265 264 264 264 264 265 265 265 265 264 265 266 266
271 271 271 272 273 274 275 275 275 275 277 277 276 275 274 273 273 273 272 272 272 272 271 271 271 271 270 268 267 266 266 266 266 266 266 266 265 265 265 265 265 265 265 267
272 272 272 273 273 275 276 276 276 277 278 278 277 276 275 274 274 274 274 273 273 272 272 273 273 272 271 269 268 267 267 266 266 266 267 266 266 266 266 266 266 265 266 266
273 274 275 275 275 276 276 277 277 277 277 277 276 275 275 275 274 274 274 273 274 274 273 272 272 272 271 270 269 268 267 266 267 266 267 267 268 268 268 267 266 265 265 266
273 273 274 274 274 275 276 277 277 277 276 276 276 276 275 274 273 273 273 274 275 275 274 273 272 271 272 272 271 270 269 268 268 268 268 268 269 269 268 268 268 267 266 266
273 273 274 275 275 275 276 277 277 277 275 274 274 274 274 273 272 272 273 275 276 276 276 274 274 273 273 272 272 270 270 269 269 269 269 270 270 270 269 269 268 267 266 266
273 275 276 276 275 275 276 277 277 277 276 275 273 272 272 271 272 273 274 275 276 276 276 275 275 274 273 272 271 270 270 269 270 270 270 271 271 271 270 269 267 267 267 267
Height
5672 5674 5674 5675 5676 5677 5677 5678 5679 5681 5680 5681 5683 5685 5686 5687 5688 5690 5691 5693 5695 5696 5698 5699 5701 5702 5704 5706 5708 5709 5711 5712 5714 5716 5717 5719 5720 5722 5723 5724 5726 5727 5728 5730
5666 5667 5668 5668 5669 5669 5669 5670 5672 5673 5672 5673 5675 5677 5678 5679 5681 5682 5683 5685 5686 5688 5689 5691 5692 5694 5695 5697 5699 5701 5702 5704 5705 5707 5709 5710 5712 5713 5714 5715 5717 5718 5720 5721
5658 5661 5660 5661 5661 5662 5662 5663 5664 5664 5665 5665 5666 5669 5671 5671 5672 5673 5675 5677 5678 5680 5681 5682 5684 5685 5686 5688 5690 5692 5693 5695 5696 5698 5700 5701 5703 5704 5705 5707 5708 5709 5711 5712
5651 5652 5653 5653 5654 5654 5655 5656 5656 5656 5656 5657 5658 5659 5663 5664 5664 5666 5667 5668 5669 5671 5672 5674 5675 5676 5678 5679 5681 5682 5684 5686 5687 5688 5690 5692 5693 5695 5696 5698 5699 5700 5701 5703
5644 5645 5645 5646 5647 5647 5647 5648 5648 5648 5648 5649 5650 5650 5654 5655 5657 5658 5659 5660 5661 5662 5663 5665 5666 5667 5668 5670 5671 5673 5674 5676 5677 5679 5680 5682 5683 5685 5687 5688 5689 5691 5692 5693
5637 5637 5638 5639 5639 5639 5639 5640 5640 5639 5639 5640 5643 5642 5644 5647 5649 5649 5650 5651 5652 5653 5654 5656 5657 5658 5660 5661 5662 5663 5665 5666 5667 5669 5670 5672 5673 5675 5677 5678 5680 5681 5682 5684
5630 5630 5630 5631 5631 5632 5632 5632 5631 5630 5630 5632 5634 5633 5637 5639 5640 5641 5642 5642 5643 5644 5645 5647 5648 5649 5650 5652 5653 5654 5655 5656 5658 5659 5660 5662 5663 5665 5666 5668 5669 5670 5672 5673
5622 5623 5623 5623 5623 5623 5624 5624 5624 5623 5622 5624 5625 5625 5630 5631 5631 5632 5633 5634 5634 5635 5636 5637 5639 5640 5641 5642 5643 5644 5645 5646 5648 5649 5650 5651 5652 5654 5655 5657 5658 5659 5661 5662
5614 5615 5616 5615 5615 5616 5615 5615 5616 5615 5614 5614 5616 5618 5622 5622 5622 5623 5624 5625 5625 5626 5627 5628 5629 5630 5631 5632 5633 5634 5635 5636 5638 5639 5640 5641 5642 5643 5644 5645 5647 5648 5649 5651
5606 5606 5607 5607 5607 5607 5608 5608 5607 5606 5605 5605 5607 5610 5613 5614 5614 5614 5614 5615 5615 5616 5617 5618 5619 5620 5621 5622 5623 5624 5625 5626 5627 5628 5629 5630 5631 5632 5633 5634 5635 5637 5638 5639
5598 5598 5598 5598 5598 5599 5599 5599 5598 5597 5597 5597 5597 5604 5605 5605 5604 5604 5605 5605 5605 5606 5607 5608 5609 5610 5611 5612 5613 5613 5614 5615 5616 5617 5618 5619 5620 5620 5621 5622 5624 5625 5626 5627
5588 5588 5588 5589 5589 5589 5589 5589 5590 5590 5589 5589 5588 5595 5596 5596 5595 5595 5595 5595 5595 5596 5597 5597 5598 5599 5600 5601 5602 5602 5603 5604 5605 5605 5606 5607 5608 5609 5610 5610 5611 5612 5613 5614
5579 5578 5578 5579 5581 5580 5580 5580 5580 5580 5580 5579 5579 5585 5586 5586 5585 5585 5585 5585 5585 5586 5586 5586 5587 5588 5588 5589 5590 5591 5592 5592 5593 5594 5594 5595 5595 5596 5597 5598 5598 5599 5600 5601
5568 5568 5569 5570 5570 5570 5570 5571 5571 5570 5569 5569 5571 5574 5576 5575 5575 5575 5574 5574 5574 5575 5575 5575 5575 5576 5577 5577 5578 5579 5580 5580 5581 5581 5582 5582 5583 5583 5584 5584 5585 5586 5587 5588
5558 5558 5558 5559 5560 5559 5560 5561 5561 5560 5560 5560 5562 5563 5564 5564 5563 5563 5563 5563 5563 5564 5564 5564 5564 5564 5565 5565 5566 5566 5567 5568 5568 5569 5569 5569 5570 5570 5571 5571 5572 5573 5574 5575
5548 5548 5548 5549 5550 5548 5549 5551 5551 5550 5550 5550 5550 5552 5553 5552 5552 5552 5552 5552 5552 5552 5552 5552 5552 5552 5552 5552 5553 5553 5554 5555 5555 5555 5556 5556 5556 5557 5558 5559 5560 5560 5561 5562
5538 5538 5537 5538 5538 5536 5538 5542 5541 5540 5541 5540 5539 5542 5542 5541 5541 5541 5540 5540 5539 5539 5539 5539 5539 5539 5539 5540 5540 5541 5541 5542 5542 5542 5543 5543 5543 5544 5545 5546 5547 5547 5548 5548
5529 5528 5526 5526 5527 5525 5532 5531 5530 5529 5529 5529 5529 5529 5530 5529 5529 5528 5528 5527 5527 5527 5526 5526 5525 5526 5526 5526 5527 5527 5528 5528 5528 5529 5529 5529 5530 5531 5532 5532 5533 5534 5534 5535
5519 5518 5516 5515 5513 5513 5519 5520 5518 5517 5518 5519 5517 5517 5516 5516 5516 5516 5516 5515 5514 5514 5514 5513 5513 5512 5513 5513 5513 5514 5514 5515 5515 5515 5516 5516 5517 5517 5518 5519 5520 5520 5521 5521
5509 5507 5507 5504 5502 5503 5509 5509 5506 5505 5505 5507 5505 5504 5504 5503 5503 5505 5503 5502 5502 5501 5501 5500 5500 5500 5500 5500 5500 5500 5500 5501 5501 5502 5502 5503 5503 5504 5504 5505 5506 5506 5507 5507
5498 5496 5495 5494 5491 5492 5497 5496 5495 5495 5496 5494 5493 5492 5491 5490 5490 5491 5490 5489 5489 5489 5488 5487 5487 5487 5487 5486 5486 5486 5487 5487 5488 5488 5488 5489 5489 5489 5490 5490 5491 5492 5492 5493
5486 5485 5484 5483 5481 5485 5486 5484 5484 5483 5482 5481 5480 5479 5478 5478 5477 5477 5477 5476 5476 5475 5475 5474 5474 5473 5473 5472 5472 5472 5473 5473 5474 5474 5474 5475 5475 5475 5476 5476 5476 5477 5477 5478
5475 5476 5474 5473 5475 5475 5474 5473 5472 5471 5470 5469 5468 5467 5466 5466 5465 5464 5464 5463 5463 5462 5462 5461 5461 5460 5459 5459 5459 5459 5459 5459 5459 5460 5460 5460 5460 5461 5461 5461 5461 5462 5462 5463
5465 5464 5462 5461 5463 5463 5462 5461 5460 5459 5458 5457 5456 5455 5454 5453 5453 5452 5452 5451 5450 5450 5449 5448 5448 5447 5447 5446 5445 5445 5445 5445 5445 5446 5446 5446 5446 5446 5446 5446 5446 5446 5447 5447
5454 5452 5450 5450 5451 5450 5451 5449 5448 5446 5445 5444 5443 5442 5441 5441 5440 5440 5439 5439 5438 5437 5437 5436 5435 5434 5434 5433 5432 5432 5432 5432 5432 5432 5431 5431 5431 5431 5431 5431 5431 5431 5432 5432
5443 5441 5439 5439 5439 5437 5438 5437 5435 5434 5432 5431 5430 5430 5429 5428 5428 5428 5427 5426 5426 5425 5424 5423 5422 5421 5421 5420 5419 5419 5418 5418 5418 5418 5418 5417 5417 5417 5416 5416 5416 5416 5417 5417